Location: Asheville, NC
(35.6000°N, 82.5500°W)
Time: 09:23:26
(UTC-04:00)

Vanguard 1 - Pass Details

Date: 10 March 2018
Orbit: 650 x 3833 km, 34.3° (Epoch: 24 June)

Event Time Altitude Azimuth Distance (km) Brightness Sun altitude
Rises 15:25:20 0° 285° (WNW) 7,538 15.0 34.8°
Reaches altitude 10° 15:31:04 10° 282° (WNW) 6,152 14.8 33.9°
Maximum altitude 15:47:53 57° 211° (SSW) 2,377 13.2 31.0°
Drops below altitude 10° 15:56:58 10° 134° (SE) 3,489 12.8 29.4°
Sets 15:59:19 0° 130° (SE) 4,175 13.1 29.0°
